Tracking 31032 objects as of 13-Jul-2025
HD Live streaming from Space Station
objects crossing your sky now

CZ-6A DEB

Track CZ-6A DEB now!
10-day predictions


NORAD ID: 54431
Int'l Code: 2022-151FF
Perigee: 808.2 km
Apogee: 976.7 km
Inclination: 99.0 °
Period: 102.7 minutes
Semi major axis: 7263 km
RCS: Unknown
Launch date: November 11, 2022
Source: People's Republic of China (PRC)
Launch site: Taiyaun Space Center, China (TSC)

Note: This is SATELLITE DEBRIS
Your satellite tracking list
Your tracking list is empty




NASA's NSSDC Master Catalog

Two Line Element Set (TLE):
1 54431U 22151FF  25194.44772120  .00001004  00000-0  64274-3 0  9997
2 54431  98.9711 198.4790 0116025 215.2594 144.0857 14.02454540136137
Source of the keplerian elements: AFSPC